K7EK Weather Reports


time (UTC)temp
C
wind
direction
speed
KPH
gust
KPH
rain 1hr
cm
rain 24hr
cm
rain mn
cm
humidity
%
barometer
mb
20260905224556 33 0 0.0 6.4 0.00 0.00 0.00 57 1011.1
20260905223055 34 133 0.0 3.2 0.00 0.00 0.00 56 1011.1
20260905221554 34 132 3.2 16.1 0.00 0.00 0.00 55 1011.2
20260905220100 34 134 0.0 4.8 0.00 0.00 0.00 56 1011.2
20260905214556 35 141 3.2 11.3 0.00 0.00 0.00 53 1011.4
20260905213105 35 184 3.2 9.7 0.00 0.00 0.00 53 1011.3
20260905211556 35 134 3.2 8.0 0.00 0.00 0.00 53 1011.3
20260905204603 35 138 1.6 17.7 0.00 0.00 0.00 53 1011.6
20260905203057 35 0 1.6 9.7 0.00 0.00 0.00 52 1011.7
20260905201556 35 165 1.6 11.3 0.00 0.00 0.00 54 1012.0
20260905200100 34 151 0.0 12.9 0.00 0.00 0.00 56 1012.0
20260905194557 35 250 3.2 11.3 0.00 0.00 0.00 55 1012.3
20260905193106 35 153 0.0 6.4 0.00 0.00 0.00 56 1012.5
20260905191603 34 220 0.0 9.7 0.00 0.00 0.00 58 1012.5
20260905184609 35 0 1.6 4.8 0.00 0.00 0.00 58 1013.0
20260905183056 33 161 0.0 11.3 0.00 0.00 0.00 59 1013.1
20260905181601 34 168 0.0 6.4 0.00 0.00 0.00 56 1013.2
20260905180107 33 160 0.0 8.0 0.00 0.00 0.00 58 1013.6
20260905174556 33 178 1.6 6.4 0.00 0.00 0.00 59 1013.7
20260905173057 32 0 1.6 6.4 0.00 0.00 0.00 59 1013.9
20260905171552 32 167 0.0 6.4 0.00 0.00 0.00 61 1014.0
20260905170057 32 0 1.6 6.4 0.00 0.00 0.00 64 1014.4
20260905164556 32 165 0.0 4.8 0.00 0.00 0.00 63 1014.4
20260905163102 31 142 0.0 6.4 0.00 0.00 0.00 64 1014.8
20260905161600 30 163 1.6 9.7 0.00 0.00 0.00 66 1014.6
20260905160059 30 157 1.6 8.0 0.00 0.00 0.00 68 1014.8
20260905154605 30 143 3.2 9.7 0.00 0.00 0.00 72 1014.8
20260905153052 28 158 3.2 9.7 0.00 0.00 0.00 74 1015.0
20260905151602 28 155 1.6 8.0 0.00 0.00 0.00 74 1015.0
20260905150100 28 143 1.6 14.5 0.00 0.00 0.00 76 1014.9
20260905144602 27 154 1.6 12.9 0.00 0.00 0.00 77 1015.0
20260905143108 28 119 1.6 12.9 0.00 0.00 0.00 77 1015.0
20260905141603 28 0 0.0 12.9 0.00 0.00 0.00 78 1015.3
20260905140058 27 153 1.6 12.9 0.00 0.00 0.00 80 1015.2
20260905134557 27 153 1.6 11.3 0.00 0.00 0.00 83 1015.2
20260905133059 27 155 0.0 3.2 0.00 0.00 0.00 82 1015.0
20260905131600 26 153 1.6 3.2 0.00 0.00 0.00 88 1015.0
20260905130057 25 160 0.0 3.2 0.00 0.00 0.00 88 1015.1
20260905124601 25 151 0.0 3.2 0.00 0.00 0.00 89 1015.2
20260905123110 25 149 0.0 6.4 0.00 0.00 0.00 91 1015.1
20260905121555 24 0 0.0 0.0 0.00 0.00 0.00 95 1014.4
20260905120107 23 0 0.0 0.0 0.00 0.00 0.00 95 1014.3
20260905114558 23 0 0.0 0.0 0.00 0.00 0.00 95 1014.2
20260905113053 23 0 0.0 0.0 0.00 0.00 0.00 94 1014.1
20260905111630 23 0 0.0 0.0 0.00 0.00 0.00 93 1013.9
20260905110100 23 0 0.0 0.0 0.00 0.00 0.00 94 1013.5
20260905104558 23 0 0.0 0.0 0.00 0.00 0.00 93 1013.5
20260905103054 23 0 0.0 0.0 0.00 0.00 0.00 92 1013.4
20260905101552 23 0 0.0 0.0 0.00 0.00 0.00 91 1013.5
20260905100108 24 0 0.0 0.0 0.00 0.00 0.00 91 1013.3
20260905094555 24 0 0.0 1.6 0.00 0.00 0.00 90 1013.2
20260905093100 24 0 0.0 0.0 0.00 0.00 0.00 91 1013.1
20260905091600 24 0 0.0 0.0 0.00 0.00 0.00 90 1013.1
20260905090100 24 0 0.0 1.6 0.00 0.00 0.00 90 1013.0
20260905084557 24 0 0.0 0.0 0.00 0.00 0.00 91 1012.9
20260905083053 24 0 0.0 0.0 0.00 0.00 0.00 90 1013.0
20260905081606 24 0 0.0 0.0 0.00 0.00 0.00 90 1012.8
20260905080058 24 0 0.0 0.0 0.00 0.00 0.00 90 1012.9
20260905074551 24 0 0.0 0.0 0.00 0.00 0.00 90 1013.2
20260905073057 25 0 0.0 0.0 0.00 0.00 0.00 89 1013.2
20260905071556 25 0 0.0 0.0 0.00 0.00 0.00 89 1013.4
20260905070059 25 0 0.0 0.0 0.00 0.00 0.00 88 1013.5
20260905064553 25 0 0.0 0.0 0.00 0.00 0.00 87 1013.5
20260905063102 25 0 0.0 0.0 0.00 0.00 0.00 87 1013.6
20260905061611 25 0 0.0 0.0 0.00 0.00 0.00 87 1013.7
20260905060053 26 0 0.0 0.0 0.00 0.00 0.00 86 1013.9
20260905054550 26 0 0.0 0.0 0.00 0.00 0.00 86 1013.9
20260905053102 26 0 0.0 0.0 0.00 0.00 0.00 85 1014.1
20260905051557 26 0 0.0 0.0 0.00 0.00 0.00 86 1014.1
20260905044606 26 0 0.0 0.0 0.00 0.00 0.00 86 1014.4
20260905043056 26 0 0.0 0.0 0.00 0.00 0.00 87 1014.4
20260905041556 26 0 0.0 0.0 0.00 0.00 0.00 86 1014.3
20260905040105 26 0 0.0 0.0 0.00 0.00 0.00 87 1014.3
20260905034558 26 0 0.0 0.0 0.00 0.00 0.00 87 1014.5
20260905033104 26 0 0.0 0.0 0.00 0.00 0.00 88 1014.6
20260905031602 26 0 0.0 0.0 0.00 0.00 0.00 87 1014.5
20260905030122 26 0 0.0 0.0 0.00 0.00 0.00 87 1014.4
20260905024555 27 0 0.0 0.0 0.00 0.00 0.00 86 1014.5
20260905023054 27 0 0.0 0.0 0.00 0.00 0.00 84 1014.4
20260905021602 27 0 0.0 0.0 0.00 0.00 0.00 82 1014.4
20260905020105 27 0 0.0 0.0 0.00 0.00 0.00 81 1014.3
20260905014555 28 0 0.0 0.0 0.00 0.00 0.00 80 1014.4
20260905013058 28 0 0.0 0.0 0.00 0.00 0.00 79 1014.1
20260905011554 28 0 0.0 0.0 0.00 0.00 0.00 77 1013.9
20260905004610 30 0 0.0 0.0 0.00 0.00 0.00 73 1013.7
20260905003058 30 0 0.0 0.0 0.00 0.00 0.00 71 1013.6
20260905001555 31 0 0.0 0.0 0.00 0.00 0.00 68 1013.6
20260905000054 32 0 0.0 0.0 0.00 0.00 0.00 64 1013.7
20260904234554 33 0 0.0 0.0 0.00 0.00 0.00 60 1013.7
20260904233057 34 0 0.0 1.6 0.00 0.00 0.00 58 1013.8
20260904231600 35 146 0.0 0.0 0.00 0.00 0.00 56 1013.7
20260904230055 35 0 0.0 3.2 0.00 0.00 0.00 55 1013.8